Weather in Sokolovka

Russia / Udmurt Republic     56°16′22″N   54°01′18″E
temp.,
°C
wind,
m/s
gust,
m/s
humid.,
%
clouds,
%
prec.,
mm/h
press.,
hPa
HPBL,
m
9 may, sun
sun901:00+10sse11825 0.0 101710
04:00+9s11860 0.0 101710
07:00+13se23700 0.0 1017152
10:00+18sse33510 0.0 1016621
13:00+21sse33371 0.0 10161862
16:00+21sse33354 0.0 10162249
19:00+19sse11502 0.0 101611
22:00+15se22580 0.0 101711
10 may, mon
mon1001:00+13ese22615 0.0 101811
04:00+12se12655 0.0 101911
07:00+15ese24625 0.0 1020143
10:00+20se33476 0.0 1021636
13:00+23se3434100 0.0 10212334
16:00+23se3334100 0.0 10212442
19:00+20e224898 0.0 102212
22:00+16e1152100 0.0 102311
11 may, tue
tue1101:00+14e225998 0.0 102414
04:00+13ese2260100 0.0 102514
07:00+15ese2357100 0.0 1026107
10:00+20se2345100 0.0 1027436
13:00+23sse333525 0.0 10271389
16:00+24s223365 0.0 10272070
19:00+20sse23504 0.0 102844
22:00+16s22575 0.0 102913
12 may, wed
wed1201:00+15wsw11581 0.0 102911
04:00+13ne11625 0.0 103011
07:00+17e115666 0.0 1030108
10:00+22e114327 0.0 1030684
13:00+25ssw113577 0.0 10301798
16:00+25wsw22352 0.0 10291975
19:00+22wsw11478 0.0 102917
22:00+18n11582 0.0 102911
13 may, thu
thu1301:00+16nne11680 0.0 102911
04:00+14nne11741 0.0 103011
07:00+18e12635 0.0 1030145
10:00+23se22471 0.0 1030753
13:00+25ssw21395 0.0 10291797
16:00+26sw21384 0.0 10281935
19:00+23ssw22510 0.0 102815
22:00+19sse115740 0.0 102811